Iron Mountain, MI

1:12 AM CDT on July 25, 2017 (GMT -0500)
Ford

Weather History for KIMT - April, 2013

Change the Weather History Date:

Sunday, April 7, 2013

  Actual Average Record
Temperature  
Mean Temperature 36 °F -  
Max Temperature 41 °F 49 °F 84 °F (1991)
Min Temperature 32 °F 24 °F 4 °F (1982)
Degree Days  
Heating Degree Days 30    
Moisture  
Dew Point 30 °F    
Average Humidity 79    
Maximum Humidity 93    
Minimum Humidity 63    
Precipitation  
Precipitation 0.00 in - - ()
Sea Level Pressure  
Sea Level Pressure 29.77 in    
Wind  
Wind Speed 9 mph (NNW)    
Max Wind Speed 21 mph    
Max Gust Speed 28 mph    
Visibility 9 miles    
Events Rain , Snow    
Averages and records for this station are not official NWS values.
T = Trace of Precipitation, MM = Missing Value Source: NWS Daily Summary

Daily Weather History Graph

Daily Weather History Graph

Search for Another Location

Airport or City:

Trip Planner

Search our weather history database for the weather conditions in past years. The results will help you decide how hot, cold, wet, or windy it might be!

Date:

Astronomy

Apr. 07, 2013 Rise Set
Actual Time 6:20 AM CDT 7:29 PM CDT
Civil Twilight 5:50 AM CDT 7:59 PM CDT
Nautical Twilight 5:13 AM CDT 8:36 PM CDT
Astronomical Twilight 4:34 AM CDT 9:15 PM CDT
Moon 4:46 AM CDT (4/7) 4:54 PM CDT (4/7)
Length of Visible Light 14h 09m
Length of Day
13h 08m
Waning Crescent, 8% of the Moon is Illuminated
Apr 7
Waning Crescent
Apr 10
New
Apr 18
First Quarter
Apr 25
Full
May 2
Last Quarter

Hourly Weather History & Observations

Time (CDT) Temp. Windchill Dew Point Humidity Pressure Visibility Wind Dir Wind Speed Gust Speed Precip Events Conditions
12:14 AM 35.6 °F 29.9 °F 33.8 °F 93% 29.47 in 4.0 mi NNW 6.9 mph - 0.00 in Rain Light Rain
12:21 AM 35.6 °F 29.9 °F 33.8 °F 93% 29.47 in 5.0 mi NW 6.9 mph - 0.00 in Rain Light Rain
12:33 AM 35.6 °F 29.2 °F 33.8 °F 93% 29.47 in 5.0 mi NNW 8.1 mph - 0.00 in Rain Light Rain
12:54 AM 35.1 °F 27.9 °F 33.1 °F 92% 29.51 in 6.0 mi NW 9.2 mph - 0.00 in Rain Light Rain
1:49 AM 35.6 °F 28.0 °F 33.8 °F 93% 29.49 in 7.0 mi NW 10.4 mph - 0.00 in   Overcast
1:54 AM 35.1 °F 26.9 °F 33.1 °F 92% 29.53 in 7.0 mi NW 11.5 mph - 0.00 in   Overcast
2:15 AM 35.6 °F 27.1 °F 32.0 °F 87% 29.50 in 10.0 mi NW 12.7 mph - 0.00 in   Overcast
2:54 AM 35.1 °F 25.5 °F 32.0 °F 89% 29.55 in 10.0 mi NW 15.0 mph - 0.00 in   Overcast
3:54 AM 34.0 °F 23.8 °F 30.9 °F 89% 29.60 in 9.0 mi WNW 16.1 mph - 0.00 in Snow Light Snow
4:26 AM 33.8 °F 25.3 °F 30.2 °F 87% 29.58 in 9.0 mi NW 11.5 mph - 0.00 in   Overcast
4:54 AM 34.0 °F 22.7 °F 30.0 °F 85% 29.63 in 10.0 mi NW 19.6 mph 23.0 mph 0.00 in   Overcast
7:54 AM 34.0 °F 26.0 °F 28.9 °F 82% 29.76 in 10.0 mi NW 10.4 mph - N/A   Overcast
8:54 AM 34.0 °F 22.4 °F 27.0 °F 75% 29.79 in 10.0 mi NNW 20.7 mph 27.6 mph N/A   Overcast
9:54 AM 34.0 °F 25.5 °F 28.0 °F 79% 29.83 in 10.0 mi NNW 11.5 mph - N/A   Overcast
10:54 AM 34.0 °F 23.8 °F 28.0 °F 79% 29.88 in 10.0 mi NW 16.1 mph - N/A   Overcast
11:54 AM 36.0 °F 28.0 °F 28.0 °F 73% 29.91 in 10.0 mi WNW 11.5 mph - N/A   Overcast
12:54 PM 37.9 °F 30.5 °F 28.0 °F 68% 29.91 in 10.0 mi NW 11.5 mph 16.1 mph N/A   Overcast
1:54 PM 39.0 °F 34.8 °F 28.0 °F 65% 29.93 in 10.0 mi Variable 5.8 mph 16.1 mph N/A   Overcast
2:54 PM 39.0 °F 34.0 °F 28.9 °F 67% 29.94 in 10.0 mi NNW 6.9 mph - N/A   Overcast
3:54 PM 39.0 °F 34.8 °F 28.0 °F 65% 29.95 in 10.0 mi North 5.8 mph - N/A   Overcast
4:27 PM 39.2 °F 33.6 °F 28.4 °F 65% 29.91 in 10.0 mi North 8.1 mph - N/A   Overcast
4:54 PM 39.9 °F 35.1 °F 28.0 °F 63% 29.94 in 10.0 mi North 6.9 mph - N/A   Partly Cloudy
5:54 PM 39.9 °F 37.8 °F 28.0 °F 63% 29.95 in 10.0 mi NE 3.5 mph - N/A   Clear
6:54 PM 39.9 °F 36.7 °F 28.0 °F 63% 29.95 in 10.0 mi ENE 4.6 mph - N/A   Clear
7:54 PM 36.0 °F - 28.0 °F 73% 29.97 in 10.0 mi Calm Calm - N/A   Clear
8:54 PM 35.1 °F 32.2 °F 27.0 °F 72% 30.00 in 10.0 mi SE 3.5 mph - N/A   Clear
9:54 PM 34.0 °F 28.0 °F 27.0 °F 75% 29.98 in 10.0 mi SE 6.9 mph - N/A   Clear
10:54 PM 32.0 °F 25.6 °F 27.0 °F 82% 29.97 in 10.0 mi SE 6.9 mph - N/A   Clear
11:54 PM 32.0 °F 25.6 °F 27.0 °F 82% 29.95 in 10.0 mi SE 6.9 mph - N/A   Clear